Regional Weather Roundup
Issued by NWS

Home | Current Version | Previous Version | Graphics & Text | Print | Product List | Glossary On
Versions: 1 2 3 4 5 6 7 8 9 10 11 12 13 14 15 16 17 18 19 20 21 22 23 24 25 26 27 28 29 30 31 32 33 34 35 36 37 38 39 40 41 42 43 44 45 46 47 48 49 50
000
ASUS43 KIND 060159
RWRIN

WEATHER ROUNDUP FOR INDIANA
NATIONAL WEATHER SERVICE INDIANAPOLIS IN
1000 PM EDT TUE MAY 05 2015

NOTE: "FAIR" INDICATES FEW OR NO CLOUDS BELOW 12,000 FEET WITH NO
SIGNIFICANT WEATHER AND/OR OBSTRUCTIONS TO VISIBILITY.

* - STATION DOES NOT REPORT WEATHER SUCH AS PRECIPITATION OR FOG.

+ - STATION NOT QUALITY CONTROLLED BY THE NATIONAL WEATHER SERVICE.
    USE DATA WITH CAUTION...ESPECIALLY DEWPOINT AND RELATIVE
    HUMIDITY OBSERVATIONS.

INZ001>003-010>013-019-020-060300-
NORTHWEST INDIANA

CITY           SKY/WX    TMP DP  RH WIND       PRES   REMARKS
GARY /AIRPORT/ CLOUDY    50 N/A N/A N5        30.21  FOG

$$

LMZ046-743>745-060300-
SOUTHERN LAKE MICHIGAN

STATION/POSITION TIME  TEMP    WIND        PRES    WAVE
                       AIR SEA DIR/SP/G            HT
                 (UTC) (F)     (DEG/KT/KT) (MB)    (FT)
BURNS HARBOR     0100   50     260/  5/  5 1023.0R
MICHIGAN CITY    0100   56      40/  5/  6   N/A
5NW MICH CITY    0100   52 50   80/  4/  6   N/A     1

$$

INZ004-005-014>016-021>024-060300-
NORTH CENTRAL INDIANA

CITY           SKY/WX    TMP DP  RH WIND       PRES   REMARKS
GOSHEN         CLOUDY    56  54  93 NE7       30.21S FOG
SOUTH BEND     CLOUDY    56  52  86 E9        30.23R

$$

INZ006>009-017-018-025>027-060300-
NORTHEAST INDIANA

CITY           SKY/WX    TMP DP  RH WIND       PRES   REMARKS
ANGOLA *+      CLOUDY    52  41  66 E8        30.23S
FORT WAYNE     CLOUDY    57  54  89 NE14      30.22R FOG

$$

INZ028-029-035-036-043>045-051>053-060300-
WEST CENTRAL INDIANA

CITY           SKY/WX    TMP DP  RH WIND       PRES   REMARKS
GREENCASTLE +  MOCLDY    70  50  49 S5        30.17S
LAFAYETTE      CLOUDY    68  62  81 E5        30.15R
TERRE HAUTE    PTCLDY    71  55  56 S6        30.15R

$$

INZ030>032-037>040-046>048-054>057-064-065-060300-
CENTRAL INDIANA

CITY           SKY/WX    TMP DP  RH WIND       PRES   REMARKS
INDIANAPOLIS   MOCLDY    73  52  47 S9        30.15S
-EAGLE CREEK   MOCLDY    70  53  54 CALM      30.16R
KOKOMO *+      CLOUDY    70  61  73 NE14      30.17R
MT COMFORT *+  PTCLDY    70  43  37 S3        30.18S
SHELBYVILLE    CLEAR     72  53  51 S8        30.17S

$$

INZ033-034-041-042-049-050-058-059-060300-
EAST CENTRAL INDIANA

CITY           SKY/WX    TMP DP  RH WIND       PRES   REMARKS
MUNCIE         CLEAR     73  54  51 S6        30.17S

$$

INZ060-061-067>069-081>083-085>088-060300-
SOUTHWEST INDIANA

CITY           SKY/WX    TMP DP  RH WIND       PRES   REMARKS
EVANSVILLE     CLEAR     73  53  49 CALM      30.17R
HUNTINGBURG *+ CLEAR     72  54  53 S3        30.18R

$$

INZ062-063-066-070>080-084-089>092-060300-
SOUTH CENTRAL AND SOUTHEAST INDIANA

CITY           SKY/WX    TMP DP  RH WIND       PRES   REMARKS
BLOOMINGTON    PTCLDY    66  53  63 CALM      30.18R
MADISON *+     CLEAR     68  52  56 CALM      30.22R
SEYMOUR +      CLEAR     68  55  64 CALM      30.18R

$$




USA.gov is the U.S. government's official web portal to all federal, state and local government web resources and services.